Flag for Mexico Weather past 2 weeks in Mexico City, Federal District, Mexico

Now
73 °F

Mild.


Feels Like: 77 °F
Forecast: N/A
Wind: 6 mph from Northeast

Location: Mexico City / Licenci

Current Time: May 28, 2015 at 4:03:21 PM

Latest Report: May 28, 2015 at 1:43 PM


Visibility: 6 mi

Pressure: 30.32 "Hg

Humidity: 38%

Dew point: 46 °F

Location of Mexico CityLocation

Historic Weather in Mexico City — Graph

°F

Mexico City temperature yesterday

Maximum temperature yesterday: 79 °F (at 3:46 PM)
Minimum temperature yesterday: 57 °F (at 5:43 AM)
Average temperature yesterday: 63 °F

Past Weeks' High & Low Weather Summary

 TemperatureHumidityPressure
High81 °F (May 18, 4:45 PM)94% (May 17, 4:46 AM)30.44 "Hg (May 17, 4:46 AM)
Low54 °F (May 19, 6:51 AM)23% (May 18, 2:28 PM)28.01 "Hg (May 25, 6:09 PM)
Average64 °F64%30.21 "Hg
* Reported May 13 1:43 PM — May 28 1:43 PM, Mexico City, Weather by CustomWeather, © 2015

Note: Actual official high and low records may vary slightly from our data, if they occured in-between our weather recording intervals... More about our weather records

Advertising

Mexico City weather history for previous 24 hours

 ConditionsComfort  
Time TempWeatherWind HumidityBarometerVisibility
1:43 PM
Thu, May 28
73 °FMild.6 mph38%30.32 "Hg6 mi
12:42 PM70 °FScattered clouds.5 mph46%29.86 "Hg5 mi
11:44 AM68 °FBroken clouds.6 mph56%30.38 "Hg5 mi
10:50 AM66 °FScattered clouds.2 mph60%30.39 "Hg5 mi
10:25 AM64 °FPartly sunny.No wind64%30.39 "Hg5 mi
9:49 AM63 °FPartly sunny.6 mph68%29.93 "Hg5 mi
9:24 AM61 °FPartly sunny.2 mph72%30.38 "Hg5 mi
8:46 AM61 °FPartly sunny.3 mph72%30.37 "Hg6 mi
8:25 AM59 °FPartly sunny.5 mph77%30.37 "Hg6 mi
7:47 AM57 °FPassing clouds.7 mph82%30.37 "Hg7 mi
7:23 AM57 °FPartly cloudy.5 mph82%30.36 "Hg7 mi
6:51 AM57 °FMostly cloudy.5 mph82%29.95 "Hg7 mi
5:46 AM57 °FPartly cloudy.No wind77%30.35 "Hg8 mi
4:47 AM57 °FPartly cloudy.5 mph77%30.34 "Hg10 mi
3:47 AM57 °FPartly cloudy.No wind77%29.80 "Hg10 mi
2:53 AM59 °FMostly cloudy.5 mph77%30.34 "Hg12 mi
1:54 AM59 °FMostly cloudy.3 mph72%30.37 "Hg12 mi
12:50 AM61 °FMostly cloudy.6 mph72%29.88 "Hg12 mi
11:45 PM
Wed, May 27
61 °FMostly cloudy.7 mph72%30.39 "Hg12 mi
10:50 PM61 °FOvercast.5 mph77%30.39 "Hg12 mi
9:50 PM61 °FOvercast.3 mph72%29.90 "Hg10 mi
7:45 PM61 °FCloudy.7 mph77%30.32 "Hg6 mi
7:05 PM61 °FSleet. Cloudy.N/A83%30.29 "HgN/A
5:59 PM59 °FThunderstorms. Mostly cloudy.21 mph82%30.30 "Hg3 mi
5:08 PM61 °FSleet. Cloudy.N/A72%30.28 "HgN/A
4:59 PM64 °FRain. Mostly cloudy.33 mph60%30.27 "Hg5 mi
4:37 PM75 °FSleet. Cloudy.N/A47%30.23 "HgN/A
Weather by CustomWeather, © 2015

See weather overviewHow to use our weather pages